Location: Unspecified
(43.4354°N, 0.0000°E)
Time: 16:10:59
(UTC+00:00)

A-11 Canister half - Pass Details

Date: 29 June 2019
Orbit: 1514 x 1686 km, 47.2° (Epoch: 21 August)

Event Time Altitude Azimuth Distance (km) Brightness Sun altitude
Rises 17:07:52 0° 287° (WNW) 4,771 12.9 25.6°
Reaches altitude 10° 17:13:03 10° 264° (W) 3,745 12.7 24.6°
Maximum altitude 17:17:12 14° 238° (WSW) 3,422 11.7 23.9°
Drops below altitude 10° 17:21:19 10° 211° (SSW) 3,690 11.3 23.2°
Sets 17:26:24 0° 187° (S) 4,648 11.5 22.2°
